Location: Ebersheim
(48.3033°N, 7.4991°E)
Time: 08:54:02
(UTC+00:00)

STARLINK-1027 - Pass Details

Date: 27 February 2020
Orbit: 569 x 571 km, 53.0° (Epoch: 04 April)

Event Time Altitude Azimuth Distance (km) Brightness Sun altitude
Rises 18:44:14 0° 269° (W) 2,770 9.0 -16.4°
Reaches altitude 10° 18:46:33 10° 275° (W) 1,874 7.7 -16.8°
Maximum altitude 18:50:41 48° 350° (N) 756 4.4 -17.5°
Enters shadow 18:52:40 27° 50° (NE) 1,116 4.8 -17.8°
